Maastricht, Netherlands

5:21 PM CEST on April 24, 2018 (GMT +0200)
Maastricht-Aachen

Weather History for EHBK - March, 2013

Change the Weather History Date:

Monday, March 4, 2013

  Actual Average Record
Temperature  
Mean Temperature 41 °F -  
Max Temperature 53 °F 49 °F 60 °F (1998)
Min Temperature 29 °F 36 °F 21 °F (2005)
Degree Days  
Heating Degree Days 24    
Moisture  
Dew Point 30 °F    
Average Humidity 68    
Maximum Humidity 93    
Minimum Humidity 34    
Precipitation  
Precipitation 0.00 in 0.08 in - ()
Sea Level Pressure  
Sea Level Pressure 30.02 in    
Wind  
Wind Speed 8 mph ()    
Max Wind Speed 13 mph    
Max Gust Speed -    
Visibility 6.7 miles    
Events      
Averages and records for this station are not official NWS values.
T = Trace of Precipitation, MM = Missing Value Source: Averaged Metar Reports

Daily Weather History Graph

Daily Weather History Graph

Search for Another Location

Airport or City:

Astronomy

Mar. 04, 2013 Rise Set
Actual Time 7:14 AM CET 6:23 PM CET
Civil Twilight 6:41 AM CET 6:56 PM CET
Nautical Twilight 6:03 AM CET 7:34 PM CET
Astronomical Twilight 5:25 AM CET 8:12 PM CET
Moon 1:33 AM CET (3/4) 10:22 AM CET (3/4)
Length of Visible Light 12h 14m
Length of Day
11h 08m
Waning Gibbous, 55% of the Moon is Illuminated
Mar 4
Waning Gibbous
Mar 4
Last Quarter
Mar 11
New
Mar 19
First Quarter
Mar 27
Full

Hourly Weather History & Observations

Time (CET) Temp. Windchill Dew Point Humidity Pressure Visibility Wind Dir Wind Speed Gust Speed Precip Events Conditions
12:25 AM 32.0 °F 24.8 °F 28.4 °F 87% 30.15 in 5.6 mi ENE 8.1 mph - N/A   Unknown
12:55 AM 32.0 °F 24.2 °F 28.4 °F 87% 30.15 in 5.0 mi ENE 9.2 mph - N/A   Unknown
1:00 AM 33 °F - 28 °F 77% 30.18 in 6 mi East 11.2 mph - -   Mist
1:25 AM 33.8 °F 26.4 °F 28.4 °F 81% 30.15 in 6.2 mi East 9.2 mph - N/A   Unknown
1:55 AM 32.0 °F 24.8 °F 28.4 °F 87% 30.12 in 5.6 mi East 8.1 mph - N/A   Unknown
2:25 AM 32.0 °F 24.2 °F 28.4 °F 87% 30.12 in 6.2 mi East 9.2 mph - N/A   Unknown
2:55 AM 32.0 °F 23.0 °F 28.4 °F 87% 30.12 in 5.6 mi East 11.5 mph - N/A   Unknown
3:25 AM 30.2 °F 21.9 °F 28.4 °F 93% 30.12 in 5.6 mi ENE 9.2 mph - N/A   Unknown
3:55 AM 30.2 °F 22.6 °F 28.4 °F 93% 30.09 in 5.6 mi ENE 8.1 mph - N/A   Unknown
4:00 AM 30 °F - 28 °F 86% 30.14 in 6 mi ENE 8.9 mph - -   Mist
4:25 AM 30.2 °F 22.6 °F 26.6 °F 86% 30.09 in 5.0 mi East 8.1 mph - N/A   Unknown
4:55 AM 30.2 °F 21.3 °F 28.4 °F 93% 30.09 in 5.6 mi East 10.4 mph - N/A   Unknown
5:25 AM 30.2 °F 22.6 °F 26.6 °F 86% 30.09 in 5.6 mi East 8.1 mph - N/A   Unknown
5:55 AM 30.2 °F 21.9 °F 26.6 °F 86% 30.06 in 5.6 mi East 9.2 mph - N/A   Unknown
6:25 AM 30.2 °F 23.4 °F 26.6 °F 86% 30.06 in 5.6 mi East 6.9 mph - N/A   Unknown
6:55 AM 30.2 °F 22.6 °F 26.6 °F 86% 30.06 in 5.0 mi East 8.1 mph - N/A   Unknown
7:00 AM 30 °F - 27 °F 84% 30.11 in 5 mi East 8.9 mph - -   Mist
7:25 AM 30.2 °F 21.9 °F 26.6 °F 86% 30.06 in 5.0 mi East 9.2 mph - N/A   Unknown
7:55 AM 30.2 °F 23.4 °F 26.6 °F 86% 30.06 in 5.0 mi East 6.9 mph - N/A   Unknown
8:25 AM 32.0 °F 24.8 °F 28.4 °F 87% 30.06 in 5.6 mi East 8.1 mph - N/A   Unknown
8:55 AM 33.8 °F 27.0 °F 28.4 °F 81% 30.06 in 6.2 mi East 8.1 mph - N/A   Unknown
9:25 AM 35.6 °F 29.2 °F 28.4 °F 75% 30.06 in 6.2 mi East 8.1 mph - N/A   Unknown
9:55 AM 37.4 °F 31.4 °F 30.2 °F 75% 30.06 in 6.2 mi East 8.1 mph - N/A   Unknown
10:00 AM 38 °F - 30 °F 64% 30.09 in 8 mi East 8.9 mph - -  
10:25 AM 39.2 °F 33.0 °F 30.2 °F 70% 30.06 in 6.2 mi East 9.2 mph - N/A   Unknown
10:55 AM 41.0 °F 35.2 °F 30.2 °F 65% 30.04 in 6.2 mi East 9.2 mph - N/A   Unknown
11:25 AM 42.8 °F 38.0 °F 32.0 °F 66% 30.04 in 6.2 mi East 8.1 mph - N/A   Unknown
11:55 AM 44.6 °F 39.7 °F 32.0 °F 61% 30.04 in 6.2 mi ENE 9.2 mph - N/A   Unknown
12:25 PM 46.4 °F 41.9 °F 32.0 °F 57% 30.04 in 6.2 mi ENE 9.2 mph - N/A   Unknown
12:55 PM 46.4 °F 41.9 °F 32.0 °F 57% 30.01 in 6.2 mi ENE 9.2 mph - N/A   Unknown
1:00 PM 48 °F - 34 °F 46% 30.04 in 12 mi East 8.9 mph - -   Partly Cloudy
1:25 PM 48.2 °F - 33.8 °F 58% 30.01 in 6.2 mi ENE 11.5 mph - N/A   Unknown
1:55 PM 50.0 °F - 33.8 °F 54% 29.98 in 6.2 mi East 12.7 mph - N/A   Unknown
2:25 PM 51.8 °F - 33.8 °F 50% 29.98 in 6.2 mi East 12.7 mph - N/A   Unknown
2:55 PM 51.8 °F - 33.8 °F 50% 29.95 in 6.2 mi East 12.7 mph - N/A   Unknown
3:25 PM 53.6 °F - 33.8 °F 47% 29.95 in 6.2 mi East 12.7 mph - N/A   Unknown
3:55 PM 53.6 °F - 32.0 °F 44% 29.95 in 6.2 mi East 11.5 mph - N/A   Unknown
4:00 PM 53 °F - 33 °F 34% 29.96 in 14 mi East 11.2 mph - -   Scattered Clouds
4:25 PM 53.6 °F - 32.0 °F 44% 29.92 in 6.2 mi East 11.5 mph - N/A   Unknown
4:55 PM 51.8 °F - 32.0 °F 47% 29.92 in 6.2 mi East 10.4 mph - N/A   Unknown
5:25 PM 51.8 °F - 32.0 °F 47% 29.92 in 6.2 mi East 10.4 mph - N/A   Unknown
5:55 PM 50.0 °F - 30.2 °F 47% 29.92 in 6.2 mi East 9.2 mph - N/A   Unknown
6:25 PM 46.4 °F 41.9 °F 30.2 °F 53% 29.92 in 6.2 mi East 9.2 mph - N/A   Unknown
6:55 PM 46.4 °F 41.9 °F 30.2 °F 53% 29.92 in 6.2 mi East 9.2 mph - N/A   Unknown
7:00 PM 46 °F - 29 °F 40% 29.95 in 19 mi East 8.9 mph - -   Partly Cloudy
7:25 PM 44.6 °F 39.2 °F 30.2 °F 57% 29.92 in 6.2 mi East 10.4 mph - N/A   Unknown
7:55 PM 44.6 °F 39.7 °F 28.4 °F 53% 29.92 in 6.2 mi ESE 9.2 mph - N/A   Unknown
8:25 PM 42.8 °F 38.0 °F 28.4 °F 57% 29.92 in 6.2 mi East 8.1 mph - N/A   Unknown
8:55 PM 41.0 °F 36.4 °F 28.4 °F 61% 29.92 in 6.2 mi East 6.9 mph - N/A   Unknown
9:25 PM 41.0 °F 36.4 °F 28.4 °F 61% 29.92 in 6.2 mi ESE 6.9 mph - N/A   Unknown
9:55 PM 41.0 °F 37.1 °F 28.4 °F 61% 29.89 in 6.2 mi East 5.8 mph - N/A   Unknown
10:00 PM 39 °F - 28 °F 54% 29.93 in 17 mi East 6.7 mph - -  
10:25 PM 37.4 °F 33.8 °F 28.4 °F 70% 29.89 in 6.2 mi ESE 4.6 mph - N/A   Unknown
10:55 PM 39.2 °F 35.0 °F 28.4 °F 65% 29.89 in 6.2 mi ESE 5.8 mph - N/A   Unknown
11:25 PM 35.6 °F 32.8 °F 28.4 °F 75% 29.89 in 6.2 mi East 3.5 mph - N/A   Unknown
11:55 PM 39.2 °F 35.9 °F 26.6 °F 61% 29.89 in 6.2 mi ESE 4.6 mph - N/A   Unknown